Location: Ferintosh
(52.7647°N, 112.9692°W)
Time: 19:11:47
(UTC+00:00)

A-11 Canister half - Pass Details

Date: 24 May 2024
Orbit: 1515 x 1685 km, 47.2° (Epoch: 12 June)

Event Time Altitude Azimuth Distance (km) Brightness Sun altitude
Rises 12:19:48 0° 265° (W) 4,729 11.0 6.7°
Reaches altitude 10° 12:22:55 10° 262° (W) 3,727 10.5 7.1°
Maximum altitude 12:32:06 63° 185° (S) 1,674 9.3 8.4°
Drops below altitude 10° 12:41:08 10° 107° (ESE) 3,674 11.9 9.6°
Sets 12:44:11 0° 105° (ESE) 4,659 12.5 10.1°
